Terminal Aerodrome Forecast
Issued by NWS

Home | Current Version | Previous Version | Text Only | Print | Product List | Glossary On
Versions: 1 2 3 4 5 6 7 8 9 10 11 12
000
FTUS45 KPIH 231100
TAFSUN
TAF
KSUN 231120Z 2312/2412 31008KT P6SM FEW180
     FM231800 15008KT P6SM SCT180
     FM240200 31008KT P6SM SCT100 BKN140
      AMD LTD TO CLD VIS AND WIND TIL 231300=

USA.gov is the U.S. government's official web portal to all federal, state and local government web resources and services.